Time,TemperatureF,DewpointF,PressureIn,WindDirection,WindDirectionDegrees,WindSpeedMPH,WindSpeedGustMPH,Humidity,HourlyPrecipIn,Conditions,Clouds,dailyrainin,SoftwareType,DateUTC
2013-05-27 00:02:00,50.0,44.0,-100.00,South,175,2.0,3.0,79,-99.99,,,-99.99,,2013-05-27 07:02:00,
2013-05-27 00:10:00,49.0,43.0,-100.00,ENE,75,2.0,3.0,79,-99.99,,,-99.99,,2013-05-27 07:10:00,
2013-05-27 00:11:00,50.0,44.0,-100.00,South,175,2.0,3.0,79,-99.99,,,-99.99,,2013-05-27 07:11:00,
2013-05-27 01:02:00,49.0,43.0,-100.00,ENE,75,2.0,3.0,79,-99.99,,,-99.99,,2013-05-27 08:02:00,
2013-05-27 02:02:00,47.0,43.0,-100.00,ESE,110,2.0,3.0,85,-99.99,,,-99.99,,2013-05-27 09:02:00,
2013-05-27 02:10:00,48.0,43.0,-100.00,NNE,25,1.0,3.0,82,-99.99,,,-99.99,,2013-05-27 09:10:00,
2013-05-27 02:11:00,47.0,43.0,-100.00,ESE,110,2.0,3.0,85,-99.99,,,-99.99,,2013-05-27 09:11:00,
2013-05-27 03:02:00,48.0,43.0,-100.00,NNE,25,1.0,3.0,82,-99.99,,,-99.99,,2013-05-27 10:02:00,
2013-05-27 04:02:00,48.0,41.0,-100.00,NNE,25,0.0,2.0,76,-99.99,,,-99.99,,2013-05-27 11:02:00,
2013-05-27 04:11:00,48.0,41.0,-100.00,NNE,25,0.0,2.0,76,-99.99,,,-99.99,,2013-05-27 11:11:00,
2013-05-27 05:01:00,45.0,41.0,-100.00,SE,135,3.0,6.0,85,-99.99,,,-99.99,,2013-05-27 12:01:00,
2013-05-27 05:11:00,45.0,41.0,-100.00,SE,135,3.0,6.0,85,-99.99,,,-99.99,,2013-05-27 12:11:00,
2013-05-27 06:01:00,43.0,40.0,-100.00,ESE,120,0.0,1.0,89,-99.99,,,-99.99,,2013-05-27 13:01:00,
2013-05-27 06:11:00,43.0,40.0,-100.00,ESE,120,0.0,1.0,89,-99.99,,,-99.99,,2013-05-27 13:11:00,
2013-05-27 07:01:00,49.0,44.0,-100.00,NE,35,1.0,2.0,82,-99.99,,,-99.99,,2013-05-27 14:01:00,
2013-05-27 07:10:00,53.0,46.0,-100.00,West,265,0.0,1.0,77,-99.99,,,-99.99,,2013-05-27 14:10:00,
2013-05-27 07:11:00,49.0,44.0,-100.00,NE,35,1.0,2.0,82,-99.99,,,-99.99,,2013-05-27 14:11:00,
2013-05-27 08:01:00,53.0,46.0,-100.00,West,265,0.0,1.0,77,-99.99,,,-99.99,,2013-05-27 15:01:00,
2013-05-27 09:02:00,55.0,45.0,-100.00,SSW,200,2.0,5.0,68,-99.99,,,-99.99,,2013-05-27 16:02:00,
2013-05-27 09:10:00,57.0,45.0,-100.00,SE,130,3.0,6.0,64,-99.99,,,-99.99,,2013-05-27 16:10:00,
2013-05-27 09:12:00,55.0,45.0,-100.00,SSW,200,2.0,5.0,68,-99.99,,,-99.99,,2013-05-27 16:12:00,
2013-05-27 10:02:00,57.0,45.0,-100.00,SE,130,3.0,6.0,64,-99.99,,,-99.99,,2013-05-27 17:02:00,
2013-05-27 11:02:00,58.0,46.0,-100.00,SE,145,5.0,8.0,64,-99.99,,,-99.99,,2013-05-27 18:02:00,
2013-05-27 11:11:00,58.0,46.0,-100.00,SE,145,5.0,8.0,64,-99.99,,,-99.99,,2013-05-27 18:11:00,